Regional Weather Roundup
Issued by NWS Wakefield, VA

Home | Current Version | Previous Version | Text Only | Print | Product List | Glossary Off
Versions: 1 2 3 4 5 6 7 8 9 10 11 12 13 14 15 16 17 18 19 20 21 22 23 24 25 26 27 28 29 30 31 32 33 34 35 36 37 38 39 40 41 42 43 44 45 46 47 48 49 50

031
ASUS41 KAKQ 232115
RWRAKQ

REGIONAL WEATHER ROUNDUP
NATIONAL WEATHER SERVICE WAKEFIELD VA
500 PM EDT SAT JUL 23 2016

Note: "fair" indicates few or no clouds below 12,000 feet with no
significant weather and/or obstructions to visibility. * = Denotes
station may not report precipitation (e.g., rain,snow,etc.),
thunder or fog.

VAZ042-051-052>054-056-232200-
NORTHERN VIRGINIA

CITY           SKY/WX    TMP DP  RH WIND       PRES   REMARKS
WASH NATIONAL  PTSUNNY   98  70  40 SW12      29.87F HX 105
DULLES         FAIR      98  67  36 W9        29.89F HX 102
FORT BELVOIR   FAIR      97  69  39 W8        29.87F HX 103
QUANTICO       FAIR      98  68  37 NW8       29.89F HX 103
FREDERICKSBRG*   N/A     96  71  43 S9        29.88F HX 103
STAFFORD*      FAIR      95  68  40 S6        29.93F HX 100
WARRENTON      FAIR      96  61  31 SW3       29.90S HX  96
CULPEPER*      FAIR      95  73  48 SW6       29.91S HX 105
MANASSAS*      NOT AVBL
LEESBURG*      FAIR      97  73  46 NW9       29.90F HX 107
WINCHESTER     PTSUNNY   97  66  36 SW3       29.91S HX 100
FRONT ROYAL*   FAIR      95  68  41 W3        29.91F HX  99
LURAY*         FAIR      95  64  36 SW8       29.94R HX  97
$$

VAZ048-049-060>072-079>083-232200-
CENTRAL AND SOUTH CENTRAL VIRGINIA

CITY           SKY/WX    TMP DP  RH WIND       PRES   REMARKS
RICHMOND       FAIR      93  72  50 SW13      29.91F HX 101
CHESTERFIELD*  FAIR      93  68  43 SW6       29.93F HX  97
PETERSBURG*    FAIR      95  73  49 SW7       29.93F HX 103
HANOVER        FAIR      93  70  46 SW7       29.93F HX  99
TAPPAHANNOCK*  FAIR      96  69  40 S10G17    29.91F HX 102
QUINTON*       FAIR      93  76  57 S5        29.91F HX 105
CHARLOTTSVILLE FAIR      99  67  35 S13       29.92F HX 103
GORDONSVILLE*  FAIR      96  73  48 S8        29.91F HX 105
ORANGE*          N/A     95  70  43 S5        29.93F HX 101
LOUISA*        FAIR      97  75  49 S5        29.91F HX 109
BUMPASS*       FAIR      94  74  53 S5        29.91F HX 104
FARMVILLE*     NOT AVBL
CREWE*         FAIR      96  72  45 SW7       29.94S HX 104
FORT PICKETT*  FAIR      93  74  53 S8        29.94F HX 103
CHASE CITY*    FAIR      93  71  48 CALM      29.96S HX 100
CLARKSVILLE*   FAIR      93  73  52 SW6       29.95S HX 102
SOUTH HILL*    FAIR      93  74  53 S9        30.00F HX 103
LAWRENCEVILLE* FAIR      91  74  57 S5        29.94S HX 100
EMPORIA*       FAIR      93  72  49 S7        29.95S HX 100
$$

VAZ088>098-232200-
SOUTHEAST VIRGINIA

CITY           SKY/WX    TMP DP  RH WIND       PRES   REMARKS
NORFOLK        FAIR      97  70  41 W9        29.91F HX 103
VIRGINIA BEACH FAIR      98  73  44 SW12      29.90F HX 108
NORFOLK NAVAL  FAIR      95  71  45 SW8       29.92F HX 102
WEST POINT*    FAIR      93  73  51 SW8       29.92F HX 101
SALUDA*        FAIR      93  78  60 SW6G21    29.90F HX 108
NEWPORT NEWS   FAIR      94  76  55 W10       29.92S HX 106
LANGLEY AFB    FAIR      94  76  56 S10       29.91F HX 107
FORT EUSTIS    FAIR      95  78  56 VRB7      29.90F HX 110
WILLIAMSBURG*  FAIR      99  75  47 SW6       29.93S HX 111
HR EXEC AP*    FAIR      93  73  52 W5        29.93F HX 102
FRANKLIN*      FAIR      93  73  51 SW7       29.93S HX 102
US460-WAKEFLD  FAIR      95  72  47 SW6       29.92F HX 103
$$

VAZ020-022-025-037-045-232200-
WEST CENTRAL AND SOUTHWEST VIRGINIA

CITY           SKY/WX    TMP DP  RH WIND       PRES   REMARKS
STAUNTON*      FAIR      91  71  50 S8        29.98S HX  97
WAYNESBORO*    FAIR      91  69  48 SE6       29.99S HX  95
HOT SPRINGS VA NOT AVBL
LYNCHBURG      FAIR      92  67  43 S9        29.98F HX  95
DANVILLE       FAIR      93  69  45 CALM      29.96F HX  98
SOUTH BOSTON*  FAIR      93  70  46 CALM      29.95F HX  99
MARTINSVILLE   FAIR      94  62  34 CALM      30.00F
ROANOKE        FAIR      94  64  37 E6        30.00F HX  95
BLACKSBURG     FAIR      91  65  41 CALM      30.08F
DUBLIN*        FAIR      91  62  37 W5        30.07F
MARION*        FAIR      91  61  36 CALM      30.10F
HILLSVILLE*    CLOUDY    83  70  63 E5        30.10S
RICHLANDS*     LGT RAIN  83  70  65 NE7       30.11R
WISE*          TSTM      77  61  57 NW8       30.12S
ABINGDON*      FAIR      94  59  30 CALM      30.05F
$$

MDZ021>025-VAZ099-100-232200-
SOUTHERN MARYLAND AND THE DELMARVA PENINSULA

CITY           SKY/WX    TMP DP  RH WIND       PRES   REMARKS
PATUXENT RIVER MOSUNNY   97  69  40 W14       29.87F HX 103
BAY BRIDGE APT MOSUNNY   95  73  49 S10       29.85F HX 105
LEONARDTOWN    SUNNY     95  68  41 SW9G16    29.90F HX  99
DOVER          NOT AVBL
GEORGETOWN     SUNNY     95  68  41 W9G18     29.87F HX  99
EASTON         SUNNY     95  79  59 SW7       29.90F HX 112
CAMBRIDGE      SUNNY     91  72  52 S7        29.87F HX  98
SALISBURY      SUNNY     92  73  53 SW9       29.88S HX 100
OCEAN CITY     MOSUNNY   93  77  59 SW10      29.87F HX 107
WALLOPS ISLAND FAIR      93  74  53 W9        29.90S HX 103
ACCOMACK*      FAIR      91  72  52 SW12      29.90F HX  98
$$

NCZ012>017-030>032-232200-
NORTH CENTRAL AND EASTERN NORTH CAROLINA

CITY           SKY/WX    TMP DP  RH WIND       PRES   REMARKS
ROANOKE RAPIDS FAIR      91  75  59 S7        29.94F HX 102
RALEIGH        MOSUNNY   93  74  53 SW7       29.96S HX 103
ELIZABETH CITY SUNNY     92  74  55 S12       29.93F HX 101
AHOSKIE*       SUNNY     91  76  62 CALM      29.94R HX 102
EDENTON*       SUNNY     94  73  50 SW8       29.94S HX 103
CURRITUCK*     SUNNY     94  73  50 SW7       29.93F HX 103
KILL DEVIL HLS SUNNY     96  72  45 SW8       29.93F HX 105
MANTEO           N/A     91  78  67 SW16      29.94F HX 105
CAPE HATTERAS  SUNNY     87  76  69 SW13      29.97F HX  97
TARBORO*       FAIR      94  76  56 SW5       29.95S HX 106
GOLDSBORO      MOSUNNY   93  75  56 S6        29.94S HX 104
WASHINGTON     SUNNY     90  74  58 SW6       29.95S HX  99
GREENVILLE     MOSUNNY   95  77  55 SW8       29.96S HX 109
NEW BERN       SUNNY     91  72  53 S9        29.97S HX  98
WILMINGTON     MOSUNNY   88  73  61 S13       29.96F HX  95
$$

VAZ048-232200-
ELSEWHERE

CITY           SKY/WX    TMP DP  RH WIND       PRES   REMARKS
HARRISBURG PA  CLOUDY    96  68  39 W14       29.82F HX 101
BALTIMORE      MOSUNNY   96  70  42 W12       29.85F HX 102
ANNAPOLIS      MOSUNNY   93  77  59 S8        29.85F HX 107
ANDREWS AFB    NOT AVBL
PHILADELPHIA   PTSUNNY   95  70  44 SW18      29.81F THUNDER HX 101
GREENSBORO     PTSUNNY   91  68  46 W8        29.98S HX  95
ROCKY MOUNT    SUNNY     93  76  57 S6        29.95S HX 105
$$

VAZ100-232200-
MARINE

STATION/POSITION TIME  TEMP    WIND        PRES    WAVE   SWELL
                       AIR SEA DIR/SP/G            HT/PER HT/PER
                 (UTC) (F)     (DEG/KT/KT) (MB)    (FT/S) (FT/S)
BRANDYWINE LGT   2000   81     180/ 10/ 12   N/A
CAPE MAY NJ      2000   85 76  180/  8/ 11 1011.5S
LEWES DE         2000   89 76   10/  2/  5 1011.5F
OCEAN-CITY-INLET 2000   76 69  210/ 13/ 15 1012.4F
WACHAPREAGUE VA  2000   92     260/  7/ 12 1012.8F
THOMAS POINT MD  2100   87 83  180/ 13/ 14 1012.3F
GOOSES REEF MD   2100   91 84  230/  8/ 10 1012.6F   1/ 2
COVE POINT MD    2000   86     190/ 14/ 16 1012.6F
SOLOMONS ISLAND  2000   93 85  230/ 11/ 15   N/A
BISHOPS HEAD MD  2000   88     190/ 12/ 14 1012.5F
PINEY POINT MD   2000          170/  7/  8   N/A
POTOMAC MD       2100   88 85  160/  6/  8 1010.6F   1/ 2
CAMBRIDGE MD     2000   93 86  230/  8/ 10 1011.1F
LEWISETTA VA     2000   89 85  110/  7/  9 1011.9F
RAPPAHANNOCK LGT 2000          190/  8/  9 1013.8F
STINGRAY PT      2100   91 86  170/ 10/ 14 1012.9F   1/ 2
YORK RVR RNG VA  2000   87     120/  5/  6 1012.8F
YORKTOWN VA      2000   92 83  230/  6/ 11 1012.7F
JAMESTOWN VA     2100   93 88  230/  8/ 10   N/A
DOMINION TERM VA 2000   91     240/  8/  9 1013.4F
KIPTOPEKE VA     2000      80  180/  7/  8   N/A
CHES BAY BRIDGE  2000   85 80   50/  4/  5 1013.1F
CAPE HENRY VA    2000   92     250/  4/  9   N/A
WILLOUBY STN VA  2000   90     260/ 11/ 11   N/A
CAPE HENRY BUOY  2012      80                N/A     2/ 8
1ST LANDING BUOY 2100   86 85   10/  4/  6 1012.6F
CAPE CHARLES BUO 2026      76                N/A     2/ 8
OFFSHORE WE BUOY 2021      82                N/A     2/ 8
64NM E OF VA BCH 2050   82 81  210/ 10/ 14 1013.6F   3/ 8   2/ 8
DUCK PIER NC     2000   89 61  220/ 11/ 12 1013.2F
44100 DUCK FRF   2005      83                N/A     2/ 8
44056 DUCK FRF   2011      75                N/A     1/ 8
OREGON INLET NC  2000   85 85  190/ 18/ 21 1014.5F
HATTERAS NC      2000   86 83  210/  7/ 14 1015.0F
DIAMOND SHLS NC  2050   85 86  220/ 12/ 14 1015.1F   2/ 9   2/ 9
CAPE LOOKOUT NC  2100   85     220/ 10/ 12 1015.0F
$$




USA.gov is the U.S. government's official web portal to all federal, state and local government web resources and services.